[[{"header":{"parameterUnit":"m.s-1","parameterCategory":1,"la1":30.2991,"la2":30.254,"lo1":-89.0895,"lo2":-89.0444,"dy":0.0017,"dx":0.0017,"nx":28,"ny":28,"refTime":"2025-01-23T09:00:00:Z","depth":0,"parameterNumber":2,"parameterNumberName":"U-component_of_WINDS"},"data":[0,0,0,0,0,0,0,0,0,0,0,0,0,0,0,0,0,0,0,0,0,0,0,0,0,0,0,0,0,0,0,0,0,0,0,0,0,0,0,0,0,0,0,0,0,0,0,0,0,0,0,0,0,0,0,0,0,0,-0.3525,-0.3526,0,-0.3596,-0.3596,-0.3597,-0.3579,-0.3578,-0.3577,-0.3575,-0.3648,-0.3651,-0.3655,0,0,0,0,0,0,0,0,0,0,0,0,0,-0.3374,-0.3377,-0.3525,-0.3526,-0.3527,-0.3595,-0.3596,-0.3597,-0.358,-0.3578,-0.3576,-0.3575,-0.3647,-0.3651,-0.3655,0,0,0,0,0,0,0,0,0,0,0,0,0,-0.3441,-0.3378,-0.3525,-0.3526,-0.3527,-0.3595,-0.3596,-0.3598,-0.358,-0.3578,-0.3576,-0.3574,-0.3646,-0.3651,-0.3655,-0.3727,0,0,-0.367,-0.3672,0,0,0,0,0,0,0,0,-0.3438,-0.3447,-0.3525,-0.3526,-0.3527,-0.3576,-0.357,-0.3641,-0.358,-0.356,-0.3575,-0.3573,-0.3626,-0.3632,-0.365,-0.3731,-0.3734,-0.3671,-0.3674,-0.3676,-0.3677,0,0,0,0,0,0,0,-0.3433,-0.3444,-0.3553,-0.3526,-0.3527,-0.3523,-0.353,-0.3583,-0.3604,-0.3561,-0.356,-0.3569,-0.3626,-0.3646,-0.3652,-0.3735,-0.3671,-0.3675,-0.3678,-0.368,-0.3876,-0.3878,0,0,0,0,0,0,-0.3427,-0.344,-0.3551,-0.3555,-0.3476,-0.3527,-0.3535,-0.3563,-0.3603,-0.3607,-0.3571,-0.3568,-0.3638,-0.3646,-0.3654,-0.374,-0.3676,-0.368,-0.3683,-0.3873,-0.3876,-0.3879,0,0,0,0,0,0,-0.3424,-0.3437,-0.3548,-0.3497,-0.3511,-0.3532,-0.3563,-0.3565,-0.3585,-0.361,-0.3614,-0.3587,-0.3637,-0.3648,-0.3709,-0.3742,-0.3683,-0.3687,-0.3871,-0.3874,-0.3877,-0.3913,0,0,0,0,0,0,-0.342,-0.3436,-0.3464,-0.3498,-0.3514,-0.3601,-0.3565,-0.3568,-0.3593,-0.359,-0.3626,-0.363,-0.3636,-0.3702,-0.3714,-0.3748,-0.3691,-0.3868,-0.3872,-0.3876,-0.3909,-0.3917,-0.3924,0,0,0,0,0,-0.3415,-0.3472,-0.3466,-0.3479,-0.3549,-0.3603,-0.3612,-0.3618,-0.3596,-0.3624,-0.364,-0.3629,-0.3737,-0.3708,-0.3721,-0.3758,-0.3866,-0.3871,-0.3876,-0.3905,-0.3915,-0.3924,0,0,0,0,0,0,-0.3442,-0.3476,-0.347,-0.354,-0.3569,-0.36,-0.3636,-0.3629,-0.3665,-0.3661,-0.3666,-0.3675,-0.3737,-0.3753,-0.3721,-0.3828,-0.3798,-0.3806,-0.3816,-0.3825,-0.3833,-0.3828,-0.3695,0,0,0,0,0,-0.3456,-0.3497,-0.3525,-0.3584,-0.3599,-0.3615,-0.3639,-0.364,-0.3671,-0.3683,-0.3704,-0.3733,-0.3774,-0.38,-0.3839,-0.391,-0.3918,-0.3942,-0.395,-0.3956,-0.3963,-0.4001,-0.4011,-0.3895,-0.3895,-0.3895,0,0,-0.3486,-0.351,-0.3536,-0.359,-0.3613,-0.3655,-0.3625,-0.3672,-0.3703,-0.369,-0.3749,-0.3765,-0.3798,-0.3865,-0.3895,-0.388,-0.3996,-0.3962,-0.3967,-0.3971,-0.4007,-0.4018,-0.4028,-0.3899,-0.3898,-0.3898,0,0,-0.3562,-0.3584,-0.3635,-0.3658,-0.3692,-0.3702,-0.3714,-0.3747,-0.3757,-0.3815,-0.3806,-0.3843,-0.3913,-0.3937,-0.3958,-0.4041,-0.4032,-0.4053,-0.4094,-0.413,-0.414,-0.4148,-0.4176,-0.4187,-0.406,-0.406,-0.406,0,-0.3594,-0.3658,-0.3662,-0.3709,-0.3733,-0.3722,-0.3773,-0.3796,-0.3841,-0.3857,-0.384,-0.3926,-0.3948,-0.402,-0.4039,-0.4057,-0.4071,-0.405,-0.4138,-0.4146,-0.4154,-0.4181,-0.4192,-0.4063,-0.4062,-0.4062,-0.4062,0,-0.3696,-0.374,-0.3777,-0.3821,-0.3849,-0.3898,-0.3909,-0.3936,-0.3935,-0.3946,-0.4006,-0.4031,-0.4074,-0.4091,-0.4091,-0.4162,-0.4152,-0.4136,-0.4106,-0.4167,-0.4193,-0.4204,-0.4066,-0.4065,-0.4064,-0.4064,0,0,-0.3793,-0.3836,-0.385,-0.3869,-0.3905,-0.3939,-0.3987,-0.4028,-0.4052,-0.4083,-0.4123,-0.4181,-0.4166,-0.419,-0.4192,-0.4225,-0.4287,-0.4205,-0.4206,-0.4219,-0.4366,-0.4377,-0.439,-0.4281,-0.4283,-0.4285,-0.4363,0,-0.3872,-0.3956,-0.396,-0.4037,-0.4077,-0.4066,-0.4108,-0.4134,-0.4146,-0.4181,-0.4194,-0.4235,-0.4213,-0.4227,-0.4258,-0.4273,-0.4317,-0.4267,-0.4318,-0.432,-0.431,-0.4403,-0.4416,-0.4489,-0.4373,-0.4375,-0.4376,0,-0.3975,-0.4009,-0.4089,-0.4118,-0.4135,-0.4173,-0.421,-0.4244,-0.4273,-0.4279,-0.4305,-0.4302,-0.435,-0.4318,-0.4383,-0.435,-0.437,-0.4381,-0.4383,-0.4389,-0.4352,-0.4411,-0.4512,-0.4523,-0.4392,-0.4391,-0.439,0,-0.4037,-0.4102,-0.4158,-0.4175,-0.421,-0.4237,-0.4253,-0.428,-0.4304,-0.4336,-0.4352,-0.439,-0.4411,-0.444,-0.4447,-0.4422,-0.4512,-0.448,-0.4518,-0.4518,-0.4538,-0.4537,-0.4644,-0.4551,-0.4551,-0.4551,-0.4551,0,-0.4125,-0.4174,-0.4186,-0.4221,-0.4276,-0.4279,-0.4333,-0.4347,-0.4371,-0.4408,-0.4401,-0.4435,-0.4442,-0.4478,-0.4483,-0.4536,-0.4546,-0.4552,-0.4553,-0.4552,-0.4552,-0.4566,-0.4561,-0.4554,-0.4553,-0.4553,-0.4552,0,-0.4203,-0.4214,-0.4274,-0.4302,-0.431,-0.4349,-0.4373,-0.4406,-0.4415,-0.4462,-0.4473,-0.4489,-0.453,-0.4539,-0.4589,-0.4592,-0.4655,-0.4651,-0.4645,-0.4645,-0.4682,-0.4678,-0.4802,-0.4818,-0.4716,-0.4717,-0.4717,0,-0.4259,-0.4297,-0.4328,-0.4352,-0.4369,-0.4408,-0.4432,-0.4436,-0.4462,-0.4497,-0.4525,-0.4565,-0.4598,-0.4665,-0.468,-0.4717,-0.4714,-0.4755,-0.472,-0.4718,-0.4714,-0.4712,-0.4715,-0.4762,-0.4763,-0.4764,-0.4765,0,-0.4356,-0.4359,-0.4394,-0.4431,-0.446,-0.4489,-0.4517,-0.4536,-0.4545,-0.4573,-0.4615,-0.4641,-0.469,-0.473,-0.4767,-0.4783,-0.4775,-0.4775,-0.4786,-0.4786,-0.4781,-0.4784,-0.4663,-0.4773,-0.4772,-0.4771,-0.4771,-0.477,-0.4425,-0.4457,-0.4484,-0.4523,-0.4544,-0.457,-0.4601,-0.4615,-0.465,-0.469,-0.4691,-0.4736,-0.4763,-0.4811,-0.4829,-0.4864,-0.4852,-0.4867,-0.4871,-0.4875,-0.4878,-0.4775,-0.4871,-0.4871,-0.4871,-0.487,-0.487,0,-0.4521,-0.4537,-0.4573,-0.4612,-0.4642,-0.4631,-0.4661,-0.4687,-0.4727,-0.4752,-0.4784,-0.4831,-0.4869,-0.4887,-0.4925,-0.4949,-0.4946,-0.4959,-0.4957,-0.4961,-0.4887,-0.4874,-0.496,-0.496,-0.496,-0.496,-0.496,-0.496,-0.4575,-0.4628,-0.4634,-0.4698,-0.4714,-0.4758,-0.4776,-0.4799,-0.4819,-0.4872,-0.4904,-0.4915,-0.4937,-0.4975,-0.5009,-0.5013,-0.5027,-0.5041,-0.5044,-0.4975,-0.4966,-0.4957,-0.4945,-0.5044,-0.5045,-0.5114,-0.5115,-0.5115]},{"header":{"parameterUnit":"m.s-1","parameterCategory":1,"la1":30.2991,"la2":30.254,"lo1":-89.0895,"lo2":-89.0444,"dy":0.0017,"dx":0.0017,"nx":28,"ny":28,"refTime":"2025-01-23T09:00:00:Z","depth":0,"parameterNumber":3,"parameterNumberName":"V-component_of_WINDS"},"data":[0,0,0,0,0,0,0,0,0,0,0,0,0,0,0,0,0,0,0,0,0,0,0,0,0,0,0,0,0,0,0,0,0,0,0,0,0,0,0,0,0,0,0,0,0,0,0,0,0,0,0,0,0,0,0,0,0,0,-3.6636,-3.6637,0,-3.6728,-3.6729,-3.673,-3.6663,-3.666,-3.6657,-3.6654,-3.6745,-3.675,-3.6755,0,0,0,0,0,0,0,0,0,0,0,0,0,-3.6397,-3.6402,-3.6636,-3.6637,-3.6638,-3.6728,-3.6729,-3.6731,-3.6663,-3.666,-3.6656,-3.6653,-3.6743,-3.675,-3.6756,0,0,0,0,0,0,0,0,0,0,0,0,0,-3.6496,-3.6404,-3.6636,-3.6616,-3.6615,-3.6728,-3.6729,-3.6731,-3.6664,-3.666,-3.6655,-3.6651,-3.6741,-3.6749,-3.6757,-3.6894,0,0,-3.6781,-3.6784,0,0,0,0,0,0,0,0,-3.6491,-3.6505,-3.6617,-3.6617,-3.6616,-3.668,-3.6679,-3.6785,-3.6665,-3.6645,-3.6654,-3.6649,-3.6727,-3.6735,-3.6762,-3.6898,-3.6902,-3.6781,-3.6786,-3.6789,-3.6791,0,0,0,0,0,0,0,-3.6484,-3.6501,-3.6672,-3.6619,-3.6618,-3.6601,-3.661,-3.6699,-3.671,-3.6647,-3.6642,-3.6654,-3.6726,-3.6755,-3.6764,-3.6903,-3.6781,-3.6788,-3.6793,-3.6796,-3.7155,-3.716,0,0,0,0,0,0,-3.648,-3.6496,-3.6669,-3.6675,-3.6542,-3.6609,-3.6619,-3.6664,-3.6709,-3.6711,-3.6658,-3.665,-3.6744,-3.6755,-3.6767,-3.693,-3.6789,-3.6797,-3.6801,-3.715,-3.7156,-3.7161,0,0,0,0,0,0,-3.6475,-3.6496,-3.6666,-3.6584,-3.6604,-3.6617,-3.6668,-3.6668,-3.6697,-3.6717,-3.6718,-3.6686,-3.6741,-3.6756,-3.6863,-3.6932,-3.68,-3.6807,-3.7144,-3.7152,-3.7159,-3.7258,0,0,0,0,0,0,-3.6468,-3.6495,-3.6548,-3.6586,-3.6609,-3.6762,-3.6673,-3.6673,-3.6711,-3.6703,-3.6744,-3.6746,-3.6739,-3.6852,-3.6871,-3.6941,-3.6813,-3.7138,-3.7148,-3.7156,-3.7249,-3.7268,-3.7284,0,0,0,0,0,-3.646,-3.6571,-3.6551,-3.6572,-3.6676,-3.6766,-3.6779,-3.6769,-3.6717,-3.677,-3.6783,-3.6745,-3.6922,-3.6863,-3.6884,-3.6957,-3.7134,-3.7145,-3.7156,-3.7241,-3.7264,-3.7284,0,0,0,0,0,0,-3.654,-3.6576,-3.6554,-3.6681,-3.6721,-3.6754,-3.6821,-3.6794,-3.6848,-3.6838,-3.6821,-3.6831,-3.6943,-3.6961,-3.6895,-3.7092,-3.7019,-3.7035,-3.7077,-3.7099,-3.7117,-3.711,-3.682,0,0,0,0,0,-3.6573,-3.6644,-3.6671,-3.6781,-3.6802,-3.6808,-3.6847,-3.6835,-3.6875,-3.6892,-3.6912,-3.6951,-3.7015,-3.7058,-3.7118,-3.725,-3.7258,-3.7311,-3.7329,-3.7343,-3.7357,-3.7428,-3.7452,-3.7197,-3.7197,-3.7197,0,0,-3.6641,-3.6669,-3.6715,-3.6797,-3.6827,-3.69,-3.6823,-3.6903,-3.6956,-3.6903,-3.7006,-3.7022,-3.7065,-3.7185,-3.7239,-3.7203,-3.7429,-3.7357,-3.7369,-3.7375,-3.7442,-3.7466,-3.7487,-3.7205,-3.7203,-3.7202,0,0,-3.6802,-3.6831,-3.6925,-3.6957,-3.7003,-3.7006,-3.7029,-3.7066,-3.7075,-3.7178,-3.714,-3.7202,-3.7313,-3.7345,-3.7376,-3.7548,-3.7516,-3.7568,-3.7662,-3.773,-3.775,-3.7768,-3.7829,-3.7852,-3.7582,-3.7582,-3.7582,0,-3.688,-3.699,-3.6977,-3.7061,-3.7097,-3.7054,-3.7148,-3.7179,-3.7242,-3.7268,-3.7227,-3.7365,-3.7391,-3.7518,-3.756,-3.7586,-3.7611,-3.7564,-3.7749,-3.7766,-3.7783,-3.7841,-3.7864,-3.7588,-3.7587,-3.7587,-3.7586,0,-3.7084,-3.716,-3.723,-3.7294,-3.7338,-3.7427,-3.7426,-3.7473,-3.7457,-3.7465,-3.7569,-3.7598,-3.7663,-3.7692,-3.7678,-3.7817,-3.7793,-3.7751,-3.7678,-3.7813,-3.7868,-3.789,-3.7597,-3.7595,-3.7593,-3.7591,0,0,-3.7299,-3.7353,-3.738,-3.7407,-3.7455,-3.7513,-3.7598,-3.7663,-3.7703,-3.7748,-3.7819,-3.7914,-3.7875,-3.791,-3.7898,-3.7958,-3.8093,-3.7908,-3.7909,-3.7942,-3.8247,-3.8279,-3.8305,-3.8071,-3.8075,-3.8079,-3.8244,0,-3.7462,-3.7614,-3.7604,-3.7746,-3.7816,-3.7775,-3.7849,-3.7886,-3.7895,-3.7954,-3.7962,-3.803,-3.7974,-3.7995,-3.8053,-3.8064,-3.8154,-3.8052,-3.8136,-3.8139,-3.8127,-3.8334,-3.8368,-3.8523,-3.8265,-3.8269,-3.8271,0,-3.7674,-3.7727,-3.7876,-3.7912,-3.7941,-3.8008,-3.8067,-3.8124,-3.8164,-3.8166,-3.8205,-3.8183,-3.8268,-3.8193,-3.8309,-3.824,-3.8274,-3.8285,-3.829,-3.8298,-3.8214,-3.8347,-3.8572,-3.8595,-3.8305,-3.8302,-3.8299,0,-3.7816,-3.7924,-3.8027,-3.8052,-3.8097,-3.8145,-3.8166,-3.8201,-3.8241,-3.8291,-3.8316,-3.8375,-3.8408,-3.8453,-3.8447,-3.8393,-3.8566,-3.849,-3.8569,-3.857,-3.8608,-3.8606,-3.8841,-3.863,-3.8629,-3.8629,-3.8628,0,-3.8,-3.8092,-3.8091,-3.8155,-3.8257,-3.8245,-3.8346,-3.8361,-3.8393,-3.8457,-3.8425,-3.8486,-3.8474,-3.8534,-3.853,-3.8627,-3.8642,-3.8645,-3.8643,-3.8648,-3.8648,-3.867,-3.866,-3.8635,-3.8633,-3.8632,-3.8631,0,-3.8176,-3.8179,-3.8289,-3.8322,-3.8333,-3.8407,-3.8435,-3.8494,-3.8499,-3.8582,-3.86,-3.8609,-3.8678,-3.8677,-3.8756,-3.8752,-3.8872,-3.8857,-3.8859,-3.8856,-3.8935,-3.8928,-3.9194,-3.9228,-3.8994,-3.8996,-3.8998,0,-3.8293,-3.8364,-3.8405,-3.8447,-3.8471,-3.8538,-3.8578,-3.8568,-3.8611,-3.8661,-3.8714,-3.8781,-3.8834,-3.8946,-3.8959,-3.9019,-3.9005,-3.9094,-3.9014,-3.9017,-3.9006,-3.9002,-3.9009,-3.911,-3.9112,-3.9115,-3.9116,0,-3.8502,-3.8499,-3.8559,-3.862,-3.8669,-3.8715,-3.8758,-3.8794,-3.8788,-3.8837,-3.8909,-3.895,-3.903,-3.9097,-3.9154,-3.9173,-3.9144,-3.9141,-3.9163,-3.9169,-3.9168,-3.917,-3.8902,-3.9135,-3.9133,-3.9132,-3.9131,-3.913,-3.8652,-3.8713,-3.8751,-3.8819,-3.885,-3.8891,-3.8948,-3.8961,-3.9021,-3.9086,-3.9076,-3.9156,-3.9192,-3.9266,-3.9291,-3.9352,-3.932,-3.9352,-3.936,-3.9368,-3.9377,-3.9158,-3.9362,-3.9362,-3.9361,-3.9361,-3.936,0,-3.8859,-3.8881,-3.8943,-3.9005,-3.9058,-3.9026,-3.9071,-3.9117,-3.9188,-3.9225,-3.9278,-3.9359,-3.9423,-3.9441,-3.9502,-3.9547,-3.9535,-3.9564,-3.956,-3.9565,-3.9401,-3.9377,-3.9573,-3.9572,-3.9572,-3.9572,-3.9572,-3.9572,-3.8972,-3.9073,-3.9076,-3.9191,-3.9213,-3.9291,-3.932,-3.9357,-3.9386,-3.9479,-3.9533,-3.9544,-3.9573,-3.9636,-3.9692,-3.9696,-3.972,-3.9754,-3.9752,-3.9598,-3.9577,-3.9557,-3.9533,-3.9759,-3.9759,-3.9911,-3.9912,-3.9913]}]]